Location: Calvatone
(45.1167°N, 10.4333°E)
Time: 11:41:18
(UTC+00:00)

AO-85 - Pass Details

Date: 11 December 2023
Orbit: 516 x 753 km, 64.8° (Epoch: 04 January)

Event Time Altitude Azimuth Distance (km) Brightness Sun altitude
Rises 18:54:53 0° 321° (NW) 2,907 ? -34.1°
Reaches altitude 10° 18:57:08 10° 317° (NW) 2,032 ? -34.5°
Enters shadow 18:58:08 17° 314° (NW) 1,653 ? -34.6°
